Aviation Discussion

KDTW 241720Z 2418/2524 VRB05KT P6SM SCT150
FM250000 09004KT P6SM BKN100
FM251000 05004KT P6SM OVC070 PROB30 2518/2522 5SM -SHRA OVC050=

KDET 251121Z 2512/2612 10006KT P6SM SCT045 OVC060
FM251900 07008KT P6SM OVC100
FM260000 04010KT P6SM SCT150
FM260600 01006KT P6SM SKC=

Cleveland Center Weather Service Unit (CWSU)
Mission:
Our main responsibility is to provide up to the minute weather information to FAA Supervisors and the ZOB Traffic Management Unit (TMU). Some of the products issued by the CWSU are the Center Weather Advisories (CWA) and the Meteorological Impact Statement (MIS). The CWA is an aviation weather warning for thunderstorms, severe icing or turbulence, and low IFR ceilings and visibility. The MIS is a 2-12 hour forecast for weather conditions, which are expected to impact ARTCC operations.
 
Operations:
The Cleveland Center Weather Service Unit (ZOB CWSU) is located at the Federal Aviation Administration (FAA) Air Route Traffic Control Center (ARTCC) in Oberlin, OH. Four National Weather Service meteorologists staff the office. Our hours of operation are from 6:00 A.M. to 9:30 P.M. daily.

Web Site Owner:
NOAA National Weather Service
Cleveland ARTCC Attn:CWSU
326 East Lorain Street
Oberlin, OH 44074
Web Administrator:Webmaster
Page last modified: 23 Feb 2013
Disclaimer
Credits
Glossary
Privacy Policy
About Our Organization
Career Opportunities